Hourly Weather Roundup
Issued by NWS Central Illinois

Home | Current Version | Previous Version | Text Only | Print | Product List | Glossary On
Versions: 1 2 3 4 5 6 7 8 9 10 11 12 13 14 15 16 17 18 19 20 21 22 23 24 25 26 27 28 29 30 31 32 33 34 35 36 37 38 39 40 41 42 43 44 45 46 47 48 49 50
000
NZUS43 KILX 151510
HWRILX

Area Weather Roundup
National Weather Service Lincoln IL
1000 AM CDT TUE AUG 15 2017

NOTE:  "FAIR" indicates few or no clouds below 12,000 feet, with
       no sigificant weather and/or obstructions to visibility.


CITY           SKY/WX    TMP DP  RH WIND       PRES   REMARKS
Bloomington    PTSUNNY   77  70  79 SW3       29.93S
Champaign      SUNNY     79  69  71 W5        29.94R HX  81
Danville       MOSUNNY   78  71  79 W5        29.91R HX  80
Decatur        MOSUNNY   78  69  73 SW7       29.94R HX  80
Effingham      MOSUNNY   79  73  79 W3        29.96R HX  83
Flora          PTSUNNY   79  72  78 CALM      29.95R HX  82
Galesburg      SUNNY     78  70  76 CALM      29.92R HX  81
Jacksonville   SUNNY     78  71  80 SW3       29.93R HX  80
Lacon          SUNNY     77  70  80 NE3       29.90S
Lawrenceville  MOSUNNY   79  71  76 CALM      29.95R HX  82
Litchfield     MOSUNNY   77  69  78 SW3       29.94S
$$


CITY           SKY/WX    TMP DP  RH WIND       PRES   REMARKS
Lincoln        MOSUNNY   79  73  79 W3        29.92S HX  83
Macomb         SUNNY     77  72  84 CALM      29.93R
Mattoon        MOSUNNY   79  72  79 SW6       29.93R HX  82
Mt Carmel AP   SUNNY     79  71  78 W3        29.95R HX  81
Olney-Noble AP CLOUDY    79  75  86 CALM      29.95R HX  83
Paris AP       MOSUNNY   79  73  83 W5        29.95R HX  82
Peoria         SUNNY     80  71  74 S3        29.91S HX  84
Pontiac        PTSUNNY   76  73  90 CALM      29.93S
Rantoul        MOSUNNY   81  71  71 SW6       29.93S HX  85
Robinson       CLOUDY    76  71  83 CALM      29.96R
Springfield    PTSUNNY   80  73  79 W7        29.93R HX  84
Taylorville    SUNNY     78  71  79 SW6       29.94R HX  80
$$

...REGIONAL REPORTS...


CITY           SKY/WX    TMP DP  RH WIND       PRES   REMARKS
Chicago O`Hare MOSUNNY   78  63  59 NE6       29.90S HX  80
Kankakee       CLOUDY    77  69  77 CALM      29.92R
Moline         SUNNY     76  67  73 N8        29.91R
Mount Sterling PTSUNNY   77  71  81 W5        29.92R
Mount Vernon   MOSUNNY   80  72  76 VRB5      29.94S HX  84
Pittsfield     MOSUNNY   79  72  79 CALM      29.94R HX  83
Quincy         PTSUNNY   77  70  79 SW8       29.92R
Rockford       PTSUNNY   77  64  64 N8        29.94S
$$


CITY           SKY/WX    TMP DP  RH WIND       PRES   REMARKS
Burlington     SUNNY     78  71  79 CALM      29.90R HX  80
Cedar Rapids   CLOUDY    68  67  96 NE8       29.93R
Des Moines     CLOUDY    75  66  73 NE7       29.90S
Kirksville     SUNNY     81  71  71 SW5       29.93R HX  85
Ottumwa        MOSUNNY   77  70  79 NE10      29.90S
St Louis       PTSUNNY   82  70  66 S7        29.93S HX  86
$$


CITY           SKY/WX    TMP DP  RH WIND       PRES   REMARKS
Terre Haute    CLOUDY    77  69  76 CALM      29.94R
Evansville     PTSUNNY   81  69  67 SW5       29.95R HX  84
Indianapolis   MOSUNNY   79  68  69 W7        29.94R HX  81
Lafayette      MOSUNNY   78  71  79 CALM      29.93R HX  80
Madison        CLOUDY    67  62  84 N8        29.95S
Milwaukee      MOSUNNY   74  63  68 NE8       29.93R
$$






USA.gov is the U.S. government's official web portal to all federal, state and local government web resources and services.